This demonstration page uses our WeatherBlox Daily Observations layout. Learn more.

Left ArrowRight Arrow

39.92423, -83.80882

Hourly Observations for May 1, 2020

Temp ( °F °C ) Dew Point ( °F °C ) Humidity (%) Winds ( mph kmh ) Pressure ( in mb ) Visibility ( mi km ) Precip ( " mm )
12:48 am 00:48 Cloudy 45 7 45 7 100 100 WNW 9 15 29.82 1010 10 16.0934 0 0
12:56 am 00:56 Cloudy 45 7.2 45 7.2 100 100 WNW 10 17 29.81 1010 10 16.0934 0 0
1:56 am 01:56 Cloudy with Light Rain 45 7.2 45 7.2 100 100 WNW 9 15 29.82 1010 3 4.82802 0.001 0.001
2:23 am 02:23 Cloudy with Light Rain 45 7 45 7 100 100 WNW 10 17 29.82 1010 4 6.43736 0.001 0.001
2:56 am 02:56 Cloudy with Mist and Fog 45 7.2 45 7.2 100 100 NW 13 20 29.83 1010 4 6.43736 0.001 0.001
3:56 am 03:56 Cloudy with Light Rain 45 7.2 45 7.2 100 100 NW 14 22 29.84 1011 3 4.82802 0.001 0.001
4:56 am 04:56 Cloudy with Mist and Fog 44 6.7 44 6.7 100 100 NW 13 20 29.87 1012 5 8.0467 0.001 0.001
5:34 am 05:34 Cloudy 45 7 45 7 100 100 NW 13 20 29.88 1012 10 16.0934 0 0
5:56 am 05:56 Cloudy 44 6.7 44 6.7 100 100 NW 10 17 29.88 1012 10 16.0934 0 0
6:25 am 06:25 Cloudy 45 7 45 7 100 100 NW 10 17 29.89 1012 10 16.0934 0 0
6:56 am 06:56 Cloudy 45 7.2 44 6.7 97 97 NW 13 20 29.91 1013 10 16.0934 0 0
7:56 am 07:56 Cloudy 45 7.2 44 6.7 97 97 NW 12 19 29.95 1014 10 16.0934 0 0
8:56 am 08:56 Cloudy 46 7.8 44 6.7 93 93 NW 12 19 29.98 1015 10 16.0934 0 0
9:56 am 09:56 Cloudy 46 7.8 44 6.7 93 93 NW 10 17 30.01 1016 10 16.0934 0 0
10:20 am 10:20 Cloudy 46 8 43 6 87 87 NNW 14 22 30.02 1017 10 16.0934 0 0
10:56 am 10:56 Cloudy 47 8.3 43 6.1 86 86 NNW 10 17 30.03 1017 10 16.0934 0 0
11:56 am 11:56 Cloudy 48 8.9 43 6.1 83 83 NW 8 13 30.05 1018 10 16.0934 0 0
12:56 pm 12:56 Cloudy 52 11.1 45 7.2 77 77 NW 10 17 30.05 1018 10 16.0934 0 0
1:56 pm 13:56 Cloudy 54 12.2 45 7.2 72 72 WNW 10 17 30.05 1018 10 16.0934 0.4 10.16
2:37 pm 14:37 Mostly Cloudy 57 14 46 8 67 67 NNW 10 17 30.03 1017 10 16.0934 0.21 5.334
2:56 pm 14:56 Partly Cloudy 58 14.4 46 7.8 65 65 VRB 6 9 30.04 1017 10 16.0934 0.21 5.334
3:56 pm 15:56 Mostly Cloudy 61 16.1 48 8.9 63 63 WNW 10 17 30.03 1017 10 16.0934 0 0
4:56 pm 16:56 Mostly Sunny 62 16.7 47 8.3 58 58 WNW 10 17 30.03 1017 10 16.0934 0 0
5:56 pm 17:56 Sunny 63 17.2 45 7.2 52 52 NNW 8 13 30.03 1017 10 16.0934 0 0
6:56 pm 18:56 Sunny 63 17.2 44 6.7 50 50 NW 9 15 30.04 1017 10 16.0934 0 0
7:56 pm 19:56 Sunny 60 15.6 42 5.6 52 52 NNW 6 9 30.06 1018 10 16.0934 0 0
8:56 pm 20:56 Clear 57 13.9 39 3.9 51 51 Calm 30.08 1019 10 16.0934 0.01 0.254
9:56 pm 21:56 Clear 55 12.8 47 8.3 74 74 Calm 30.09 1019 10 16.0934 0 0
10:56 pm 22:56 Clear 54 12.2 47 8.3 77 77 SSE 3 6 30.09 1019 10 16.0934 0 0
11:56 pm 23:56 Cloudy 56 13.3 45 7.2 67 67 SSE 8 13 30.07 1018 10 16.0934 0 0

Powered by AerisWeather